Volver al catálogo

ASC 1 R/B

PAM-D

ActivoGTO
NORAD 16007·ROCKET BODY·🇺🇸 United States

Lanzado Aug 27, 1985 desde Cape Canaveral Space Force Station

Loading…

TLE

ObsoletoSource: Space-Track

Época: Sep 14, 2026, 05:37 UTC

1 16007U 85076G   26257.23425188  .00000225  00000-0  30267-3 0  9995
2 16007  26.3036 199.0629 7156669 228.3984  43.6613  2.38052057348615

Sigue ASC 1 R/B en tiempo real con AllMySat

Download on the App Store